Location: Alta
(39.2070°N, 120.8111°W)
Time: 12:03:16
(UTC+00:00)

NANOSAT C BR1 - Pass Details

Date: 06 April 2023
Orbit: 573 x 586 km, 98.0° (Epoch: 10 June)

Event Time Altitude Azimuth Distance (km) Brightness Sun altitude
Rises 09:57:17 0° 27° (NNE) 2,796 ? -37.6°
Reaches altitude 10° 09:59:47 10° 41° (NE) 1,890 ? -37.3°
Enters shadow 10:00:16 12° 46° (NE) 1,737 ? -37.2°
